| time (UTC) | temp F | wind direction | speed MPH | gust MPH | rain 1hr in | rain 24hr in | rain mn in | humidity % | barometer mb |
| 20260906144434 | 72 | 48 | 4.0 | 9.0 | 0.00 | 0.00 | 0.00 | 76 | 1017.5 |
| 20260906140918 | 69 | 57 | 4.0 | 9.0 | 0.00 | 0.00 | 0.00 | 76 | 1017.6 |
| 20260906134915 | 70 | 46 | 3.0 | 11.0 | 0.00 | 0.00 | 0.00 | 76 | 1017.6 |
| 20260906134024 | 69 | 53 | 3.0 | 11.0 | 0.00 | 0.00 | 0.00 | 77 | 1017.6 |
| 20260906134019 | 69 | 46 | 4.0 | 11.0 | 0.00 | 0.00 | 0.00 | 77 | 1017.5 |
| 20260906132924 | 69 | 38 | 3.0 | 6.0 | 0.00 | 0.00 | 0.00 | 77 | 1017.4 |
| 20260906132139 | 69 | 40 | 2.0 | 7.0 | 0.00 | 0.00 | 0.00 | 78 | 1017.4 |
| 20260906131433 | 69 | 56 | 3.0 | 5.0 | 0.00 | 0.00 | 0.00 | 78 | 1017.3 |
| 20260906130954 | 68 | 50 | 2.0 | 5.0 | 0.00 | 0.00 | 0.00 | 78 | 1017.2 |
| 20260906130520 | 68 | 59 | 2.0 | 6.0 | 0.00 | 0.00 | 0.00 | 79 | 1017.1 |
| 20260906125933 | 68 | 57 | 2.0 | 6.0 | 0.00 | 0.00 | 0.00 | 79 | 1017.1 |
| 20260906123541 | 67 | 49 | 2.0 | 5.0 | 0.00 | 0.00 | 0.00 | 80 | 1016.6 |
| 20260906123537 | 67 | 55 | 3.0 | 6.0 | 0.00 | 0.00 | 0.00 | 80 | 1016.5 |
| 20260906122421 | 66 | 54 | 2.0 | 5.0 | 0.00 | 0.00 | 0.00 | 80 | 1016.5 |
| 20260906121015 | 66 | 57 | 2.0 | 5.0 | 0.00 | 0.00 | 0.00 | 80 | 1016.4 |
| 20260906115534 | 66 | 56 | 3.0 | 6.0 | 0.00 | 0.00 | 0.00 | 81 | 1016.3 |
| 20260906115531 | 65 | 52 | 3.0 | 5.0 | 0.00 | 0.00 | 0.00 | 81 | 1016.2 |
| 20260906114924 | 65 | 54 | 2.0 | 5.0 | 0.00 | 0.00 | 0.00 | 81 | 1016.0 |
| 20260906114338 | 65 | 53 | 2.0 | 5.0 | 0.00 | 0.00 | 0.00 | 81 | 1016.0 |
| 20260906113804 | 65 | 53 | 2.0 | 5.0 | 0.00 | 0.00 | 0.00 | 81 | 1016.0 |
| 20260906113339 | 65 | 44 | 3.0 | 5.0 | 0.00 | 0.00 | 0.00 | 81 | 1016.0 |
| 20260906112647 | 65 | 50 | 2.0 | 4.0 | 0.00 | 0.00 | 0.00 | 81 | 1016.0 |
| 20260906111258 | 65 | 47 | 2.0 | 4.0 | 0.00 | 0.00 | 0.00 | 81 | 1015.9 |
| 20260906105037 | 65 | 53 | 2.0 | 5.0 | 0.00 | 0.00 | 0.00 | 81 | 1015.7 |
| 20260906104933 | 65 | 51 | 2.0 | 5.0 | 0.00 | 0.00 | 0.00 | 81 | 1015.7 |
| 20260906102934 | 65 | 47 | 2.0 | 5.0 | 0.00 | 0.00 | 0.00 | 80 | 1015.4 |
| 20260906100833 | 65 | 44 | 2.0 | 5.0 | 0.00 | 0.00 | 0.00 | 81 | 1015.4 |
| 20260906100507 | 65 | 65 | 3.0 | 5.0 | 0.00 | 0.00 | 0.00 | 81 | 1015.5 |
| 20260906095839 | 65 | 53 | 2.0 | 5.0 | 0.00 | 0.00 | 0.00 | 81 | 1015.4 |
| 20260906095248 | 65 | 48 | 2.0 | 5.0 | 0.00 | 0.00 | 0.00 | 82 | 1015.4 |
| 20260906094251 | 65 | 42 | 2.0 | 5.0 | 0.00 | 0.00 | 0.00 | 82 | 1015.2 |
| 20260906093521 | 66 | 53 | 2.0 | 4.0 | 0.00 | 0.00 | 0.00 | 83 | 1015.1 |
| 20260906092652 | 66 | 48 | 2.0 | 4.0 | 0.00 | 0.00 | 0.00 | 83 | 1015.0 |
| 20260906092100 | 66 | 51 | 2.0 | 4.0 | 0.00 | 0.00 | 0.00 | 83 | 1015.0 |
| 20260906091951 | 66 | 56 | 2.0 | 5.0 | 0.00 | 0.00 | 0.00 | 83 | 1014.9 |
| 20260906091351 | 66 | 55 | 2.0 | 5.0 | 0.00 | 0.00 | 0.00 | 83 | 1015.0 |
| 20260906090431 | 66 | 54 | 2.0 | 5.0 | 0.00 | 0.00 | 0.00 | 84 | 1015.0 |
| 20260906085958 | 66 | 49 | 2.0 | 4.0 | 0.00 | 0.00 | 0.00 | 84 | 1015.1 |
| 20260906085338 | 66 | 49 | 2.0 | 4.0 | 0.00 | 0.00 | 0.00 | 84 | 1015.0 |
| 20260906082624 | 66 | 49 | 2.0 | 4.0 | 0.00 | 0.00 | 0.00 | 84 | 1014.9 |
| 20260906082503 | 66 | 49 | 2.0 | 4.0 | 0.00 | 0.00 | 0.00 | 84 | 1014.8 |
| 20260906080503 | 67 | 49 | 2.0 | 4.0 | 0.00 | 0.00 | 0.00 | 84 | 1014.8 |
| 20260906073024 | 68 | 54 | 2.0 | 4.0 | 0.00 | 0.00 | 0.00 | 88 | 1014.8 |
| 20260906071819 | 69 | 46 | 1.0 | 3.0 | 0.00 | 0.00 | 0.00 | 88 | 1014.7 |
| 20260906071647 | 69 | 46 | 1.0 | 3.0 | 0.00 | 0.00 | 0.00 | 88 | 1014.7 |
| 20260906071024 | 69 | 45 | 1.0 | 3.0 | 0.00 | 0.00 | 0.00 | 89 | 1014.8 |
| 20260906070443 | 70 | 44 | 1.0 | 4.0 | 0.00 | 0.00 | 0.00 | 88 | 1014.7 |
| 20260906065732 | 70 | 44 | 1.0 | 4.0 | 0.00 | 0.00 | 0.00 | 88 | 1014.7 |
| 20260906063516 | 71 | 40 | 3.0 | 5.0 | 0.00 | 0.00 | 0.00 | 88 | 1014.8 |
| 20260906063320 | 71 | 40 | 3.0 | 5.0 | 0.00 | 0.00 | 0.00 | 88 | 1014.8 |
| 20260906062149 | 71 | 49 | 2.0 | 5.0 | 0.00 | 0.00 | 0.00 | 89 | 1014.8 |
| 20260906061831 | 71 | 55 | 2.0 | 5.0 | 0.00 | 0.00 | 0.00 | 89 | 1014.7 |
| 20260906061426 | 71 | 34 | 2.0 | 6.0 | 0.00 | 0.00 | 0.00 | 90 | 1014.8 |
| 20260906060934 | 71 | 55 | 2.0 | 6.0 | 0.00 | 0.00 | 0.00 | 90 | 1014.7 |
| 20260906060355 | 72 | 50 | 2.0 | 5.0 | 0.00 | 0.00 | 0.00 | 90 | 1014.8 |
| 20260906060302 | 72 | 50 | 2.0 | 5.0 | 0.00 | 0.00 | 0.00 | 90 | 1014.8 |
| 20260906055355 | 72 | 25 | 1.0 | 4.0 | 0.00 | 0.00 | 0.00 | 90 | 1014.8 |
| 20260906055258 | 72 | 25 | 1.0 | 4.0 | 0.00 | 0.00 | 0.00 | 90 | 1014.8 |
| 20260906053828 | 72 | 54 | 1.0 | 4.0 | 0.00 | 0.00 | 0.00 | 90 | 1014.5 |
| 20260906052041 | 72 | 57 | 2.0 | 5.0 | 0.00 | 0.00 | 0.00 | 89 | 1014.4 |
| 20260906051627 | 72 | 56 | 2.0 | 7.0 | 0.00 | 0.00 | 0.00 | 89 | 1014.4 |
| 20260906051358 | 72 | 55 | 3.0 | 7.0 | 0.00 | 0.00 | 0.00 | 89 | 1014.4 |
| 20260906051021 | 72 | 53 | 3.0 | 5.0 | 0.00 | 0.00 | 0.00 | 90 | 1014.3 |
| 20260906045907 | 73 | 46 | 2.0 | 4.0 | 0.00 | 0.00 | 0.00 | 90 | 1014.3 |
| 20260906044827 | 73 | 57 | 2.0 | 4.0 | 0.00 | 0.00 | 0.00 | 90 | 1014.2 |
| 20260906043858 | 73 | 51 | 2.0 | 4.0 | 0.00 | 0.00 | 0.00 | 89 | 1014.1 |
| 20260906041918 | 73 | 55 | 3.0 | 5.0 | 0.00 | 0.00 | 0.00 | 89 | 1013.9 |
| 20260906041836 | 73 | 55 | 3.0 | 5.0 | 0.00 | 0.00 | 0.00 | 89 | 1013.9 |
| 20260906041045 | 73 | 46 | 2.0 | 5.0 | 0.00 | 0.00 | 0.00 | 89 | 1013.9 |
| 20260906040727 | 73 | 48 | 3.0 | 5.0 | 0.00 | 0.00 | 0.00 | 89 | 1013.8 |
| 20260906035851 | 73 | 50 | 2.0 | 5.0 | 0.00 | 0.00 | 0.00 | 90 | 1013.9 |
| 20260906034019 | 74 | 46 | 2.0 | 4.0 | 0.00 | 0.00 | 0.00 | 89 | 1013.8 |
| 20260906032124 | 73 | 53 | 2.0 | 4.0 | 0.00 | 0.00 | 0.00 | 89 | 1013.9 |
| 20260906031044 | 73 | 54 | 1.0 | 3.0 | 0.00 | 0.00 | 0.00 | 89 | 1013.9 |
| 20260906030542 | 73 | 54 | 2.0 | 3.0 | 0.00 | 0.00 | 0.00 | 89 | 1013.9 |
| 20260906025718 | 73 | 55 | 1.0 | 3.0 | 0.00 | 0.00 | 0.00 | 88 | 1014.0 |
| 20260906025003 | 73 | 54 | 1.0 | 3.0 | 0.00 | 0.00 | 0.00 | 88 | 1014.0 |
| 20260906022945 | 73 | 57 | 1.0 | 3.0 | 0.00 | 0.00 | 0.00 | 86 | 1014.0 |
| 20260906021725 | 74 | 57 | 1.0 | 4.0 | 0.00 | 0.00 | 0.00 | 85 | 1014.0 |
| 20260906020430 | 73 | 51 | 3.0 | 5.0 | 0.00 | 0.00 | 0.00 | 83 | 1013.8 |
| 20260906013352 | 74 | 49 | 1.0 | 3.0 | 0.00 | 0.00 | 0.00 | 81 | 1013.4 |
| 20260906012942 | 74 | 48 | 1.0 | 4.0 | 0.00 | 0.00 | 0.00 | 80 | 1013.3 |
| 20260906011422 | 74 | 48 | 2.0 | 4.0 | 0.00 | 0.00 | 0.00 | 79 | 1013.3 |
| 20260906010953 | 74 | 53 | 1.0 | 2.0 | 0.00 | 0.00 | 0.00 | 78 | 1013.0 |
| 20260906010723 | 74 | 53 | 1.0 | 2.0 | 0.00 | 0.00 | 0.00 | 78 | 1013.0 |
| 20260906010446 | 75 | 52 | 0.0 | 2.0 | 0.00 | 0.00 | 0.00 | 78 | 1013.0 |
| 20260906005648 | 75 | 52 | 1.0 | 3.0 | 0.00 | 0.00 | 0.00 | 77 | 1013.0 |
| 20260906005503 | 75 | 52 | 1.0 | 3.0 | 0.00 | 0.00 | 0.00 | 77 | 1012.8 |
| 20260906005428 | 75 | 52 | 1.0 | 3.0 | 0.00 | 0.00 | 0.00 | 77 | 1012.8 |
| 20260906002141 | 77 | 49 | 2.0 | 4.0 | 0.00 | 0.00 | 0.00 | 75 | 1012.5 |
| 20260906001038 | 77 | 0 | 0.0 | 2.0 | 0.00 | 0.00 | 0.00 | 72 | 1012.3 |
| 20260906000540 | 77 | 16 | 0.0 | 2.0 | 0.00 | 0.00 | 0.00 | 73 | 1012.3 |
| 20260905235435 | 77 | 0 | 0.0 | 2.0 | 0.00 | 0.00 | 0.00 | 75 | 1012.5 |
| 20260905234701 | 77 | 0 | 0.0 | 3.0 | 0.00 | 0.00 | 0.00 | 76 | 1012.4 |
| 20260905234329 | 77 | 39 | 1.0 | 3.0 | 0.00 | 0.00 | 0.00 | 76 | 1012.4 |
| 20260905232726 | 79 | 15 | 0.0 | 8.0 | 0.00 | 0.00 | 0.00 | 75 | 1012.3 |
| 20260905232437 | 79 | 348 | 2.0 | 8.0 | 0.00 | 0.00 | 0.00 | 79 | 1012.4 |
| 20260905231641 | 80 | 360 | 2.0 | 9.0 | 0.00 | 0.00 | 0.00 | 72 | 1012.5 |
| 20260905231349 | 80 | 24 | 1.0 | 9.0 | 0.00 | 0.00 | 0.00 | 71 | 1012.5 |
| 20260905230929 | 81 | 360 | 3.0 | 16.0 | 0.00 | 0.00 | 0.00 | 70 | 1012.8 |
| 20260905225851 | 87 | 360 | 6.0 | 14.0 | 0.00 | 0.00 | 0.00 | 68 | 1012.8 |
| 20260905224937 | 87 | 329 | 2.0 | 5.0 | 0.00 | 0.00 | 0.00 | 67 | 1012.4 |
| 20260905223557 | 88 | 0 | 1.0 | 3.0 | 0.00 | 0.00 | 0.00 | 66 | 1012.3 |
| 20260905220653 | 91 | 279 | 1.0 | 7.0 | 0.00 | 0.00 | 0.00 | 60 | 1011.6 |
| 20260905215018 | 91 | 288 | 1.0 | 4.0 | 0.00 | 0.00 | 0.00 | 59 | 1012.0 |
| 20260905213941 | 91 | 316 | 1.0 | 4.0 | 0.00 | 0.00 | 0.00 | 58 | 1011.8 |
| 20260905212417 | 92 | 313 | 2.0 | 7.0 | 0.00 | 0.00 | 0.00 | 57 | 1011.9 |
| 20260905211232 | 92 | 264 | 2.0 | 7.0 | 0.00 | 0.00 | 0.00 | 56 | 1011.9 |
| 20260905205929 | 92 | 327 | 2.0 | 6.0 | 0.00 | 0.01 | 0.00 | 55 | 1012.1 |
| 20260905204935 | 93 | 333 | 1.0 | 6.0 | 0.00 | 0.01 | 0.00 | 57 | 1012.4 |
| 20260905204219 | 92 | 285 | 2.0 | 6.0 | 0.00 | 0.01 | 0.00 | 55 | 1012.5 |
| 20260905203839 | 92 | 0 | 2.0 | 6.0 | 0.00 | 0.01 | 0.00 | 56 | 1012.5 |
| 20260905203034 | 93 | 293 | 2.0 | 6.0 | 0.00 | 0.01 | 0.00 | 54 | 1012.6 |
| 20260905201927 | 93 | 321 | 2.0 | 6.0 | 0.00 | 0.01 | 0.00 | 55 | 1012.7 |
| 20260905201343 | 94 | 348 | 2.0 | 8.0 | 0.00 | 0.01 | 0.00 | 54 | 1012.8 |
| 20260905200726 | 93 | 295 | 2.0 | 8.0 | 0.00 | 0.01 | 0.00 | 55 | 1012.8 |
| 20260905194948 | 95 | 283 | 1.0 | 8.0 | 0.00 | 0.57 | 0.00 | 53 | 1012.9 |
| 20260905194131 | 95 | 255 | 3.0 | 8.0 | 0.00 | 0.57 | 0.00 | 54 | 1013.0 |
| 20260905193749 | 95 | 241 | 2.0 | 7.0 | 0.00 | 0.57 | 0.00 | 53 | 1013.1 |
| 20260905193456 | 95 | 259 | 3.0 | 8.0 | 0.00 | 0.57 | 0.00 | 53 | 1013.1 |
| 20260905192055 | 94 | 252 | 3.0 | 7.0 | 0.00 | 0.57 | 0.00 | 59 | 1013.4 |
| 20260905191457 | 94 | 254 | 2.0 | 6.0 | 0.00 | 0.57 | 0.00 | 55 | 1013.5 |
| 20260905190744 | 94 | 267 | 2.0 | 7.0 | 0.00 | 0.57 | 0.00 | 55 | 1013.5 |
| 20260905190028 | 94 | 250 | 2.0 | 6.0 | 0.00 | 0.57 | 0.00 | 53 | 1013.6 |
| 20260905185856 | 94 | 250 | 2.0 | 6.0 | 0.00 | 0.57 | 0.00 | 53 | 1013.6 |
| 20260905185101 | 93 | 261 | 2.0 | 7.0 | 0.00 | 0.57 | 0.00 | 60 | 1013.7 |
| 20260905184903 | 93 | 245 | 2.0 | 8.0 | 0.00 | 0.57 | 0.00 | 58 | 1013.8 |
| 20260905184017 | 93 | 253 | 2.0 | 8.0 | 0.00 | 0.57 | 0.00 | 56 | 1013.9 |
| 20260905183841 | 93 | 253 | 2.0 | 8.0 | 0.00 | 0.57 | 0.00 | 56 | 1013.9 |
| 20260905183549 | 93 | 253 | 2.0 | 8.0 | 0.00 | 0.57 | 0.00 | 56 | 1013.9 |
| 20260905183133 | 93 | 254 | 3.0 | 8.0 | 0.00 | 0.57 | 0.00 | 55 | 1013.8 |
| 20260905180957 | 91 | 248 | 2.0 | 8.0 | 0.00 | 0.57 | 0.00 | 57 | 1013.9 |
| 20260905175919 | 90 | 246 | 3.0 | 9.0 | 0.00 | 0.57 | 0.00 | 57 | 1013.9 |
| 20260905175500 | 90 | 260 | 4.0 | 9.0 | 0.00 | 0.57 | 0.00 | 57 | 1014.0 |
| 20260905174501 | 89 | 242 | 3.0 | 9.0 | 0.00 | 0.57 | 0.00 | 64 | 1014.1 |
| 20260905172037 | 87 | 244 | 3.0 | 7.0 | 0.00 | 0.57 | 0.00 | 63 | 1014.1 |
| 20260905170524 | 84 | 205 | 2.0 | 6.0 | 0.00 | 0.57 | 0.00 | 63 | 1014.5 |
| 20260905165625 | 84 | 202 | 2.0 | 7.0 | 0.00 | 0.57 | 0.00 | 64 | 1014.7 |
| 20260905163746 | 85 | 221 | 1.0 | 8.0 | 0.00 | 0.57 | 0.00 | 63 | 1015.0 |
| 20260905160846 | 85 | 163 | 3.0 | 9.0 | 0.00 | 0.57 | 0.00 | 61 | 1015.4 |
| 20260905154038 | 82 | 202 | 2.0 | 7.0 | 0.00 | 0.57 | 0.00 | 67 | 1015.1 |
| 20260905151933 | 81 | 162 | 4.0 | 10.0 | 0.00 | 0.57 | 0.00 | 64 | 1014.7 |
| 20260905151043 | 80 | 164 | 3.0 | 9.0 | 0.00 | 0.57 | 0.00 | 66 | 1014.7 |
| 20260905151041 | 80 | 134 | 3.0 | 8.0 | 0.00 | 0.57 | 0.00 | 66 | 1014.7 |
| 20260905150937 | 80 | 134 | 3.0 | 8.0 | 0.00 | 0.57 | 0.00 | 66 | 1014.7 |